Home   Weather   Albenga   Past weeks

Flag for Italy Past Weather in Albenga, Italy — Yesterday and Last 2 Weeks

Now
68 °F

Clear.


Feels Like: 68 °F
Forecast: 58 / 80 °F
Wind: 14 mph from North

Location: Capo Mele

Current Time: Sep 25, 2016 at 5:44:01 AM

Latest Report: Sep 25, 2016 at 5:00 AM


Visibility: 13 mi

Pressure: 30.18 "Hg

Humidity: 53%

Dew Point: 50 °F

Location of AlbengaLocation

Past Weather in Albenga — Graph

°F

Albenga Temperature Yesterday

Maximum temperature yesterday: 79 °F (at 2:00 PM)
Minimum temperature yesterday: 65 °F (at 3:00 AM)
Average temperature yesterday: 70 °F

High & Low Weather Summary for the Past Weeks

 TemperatureHumidityPressure
High90 °F (Sep 10, 3:00 PM)100% (Sep 21, 3:00 PM)30.28 "Hg (Sep 21, 3:00 PM)
Low62 °F (Sep 18, 6:00 AM)35% (Sep 20, 12:00 AM)29.80 "Hg (Sep 17, 6:00 PM)
Average72 °F72%29.98 "Hg
* Reported Sep 10 4:00 AM — Sep 25 4:00 AM, Albenga, Weather by CustomWeather, © 2016

Note: Actual official high and low records may vary slightly from our data, if they occured in-between our weather recording intervals... More about our weather records

Advertising

Albenga Weather History for the Previous 24 Hours

Scroll right to see more
 ConditionsComfort  
Time TempWeatherWind HumidityBarometerVisibility
4:00 AM
Sun, Sep 25
68 °FClear.15 mph55%30.19 "Hg12 mi
3:00 AM68 °FClear.17 mph57%30.19 "Hg12 mi
2:00 AM68 °FClear.12 mph56%30.21 "Hg12 mi
1:00 AM68 °FClear.8 mph55%30.21 "Hg12 mi
12:00 AM68 °FClear.10 mph55%30.21 "Hg12 mi
11:00 PM
Sat, Sep 24
68 °FClear.9 mph57%30.21 "Hg12 mi
10:00 PM68 °FClear.12 mph59%30.21 "Hg12 mi
9:00 PM68 °FPassing clouds.9 mph58%30.21 "Hg12 mi
8:00 PM70 °FPassing clouds.10 mph63%30.21 "Hg12 mi
7:00 PM74 °FScattered clouds.15 mph56%30.20 "Hg12 mi
6:00 PM75 °FPartly sunny.16 mph49%30.20 "Hg12 mi
5:00 PM74 °FOvercast.20 mph49%30.21 "Hg12 mi
4:00 PM76 °FOvercast.23 mph48%30.22 "Hg12 mi
3:00 PM77 °FOvercast.22 mph43%30.23 "Hg12 mi
2:00 PM79 °FOvercast.21 mph43%30.24 "Hg12 mi
1:00 PM77 °FPartly sunny.21 mph44%30.24 "Hg12 mi
12:00 PM76 °FPassing clouds.16 mph48%30.24 "Hg12 mi
11:00 AM74 °FPassing clouds.13 mph47%30.25 "Hg12 mi
10:00 AM72 °FPassing clouds.14 mph56%30.24 "Hg6 mi
9:00 AM68 °FPassing clouds.12 mph66%30.25 "Hg6 mi
8:00 AM65 °FPassing clouds.12 mph72%30.24 "Hg12 mi
7:00 AM65 °FClear.9 mph75%30.24 "Hg12 mi
6:00 AM66 °FPassing clouds.3 mph75%30.24 "Hg12 mi
5:00 AM66 °FPassing clouds.5 mph79%30.24 "Hg12 mi
Weather by CustomWeather, © 2016

See weather overviewHow to use our weather pages